Погода в Измайлово

Россия / Ульяновская область     53°43′15″N   47°14′41″E
темп.,
°C
ветер,
м/с
пор.,
м/с
влажн.,
%
обл.,
%
осадки,
мм/ч
давл.,
гПа
погр.,
м
29 мая, вс
вс2901:00+8зюз412870 0.0 1010324
04:00+6юз311901 0.0 1012205
07:00+10юз4118160 0.0 1013362
10:00+15зюз6106095 0.0 10141235
13:00+17зюз6952100 0.0 10151696
16:00+17юз5858100 0.1 10161955
19:00+11з4895100 2.3 1017330
22:00+10з2798100 4.4 1017333
30 мая, пн
пн3001:00+9зюз2597100 0.9 1018162
04:00+7зюз26965 0.9 1019119
07:00+10з24880 0.0 1020181
10:00+15з34620 0.0 10211001
13:00+18з355041 0.0 10211966
16:00+19з344652 0.0 10211985
19:00+17зсз236432 0.0 1022161
22:00+11св117999 0.0 102310
31 мая, вт
вт3101:00+10всв118091 0.0 102410
04:00+9вюв008129 0.0 102410
07:00+13вюв126927 0.0 1024106
10:00+18вюв22535 0.0 1024995
13:00+21юв114682 0.0 10231755
16:00+21всв114650 0.0 10231799
19:00+18в366764 0.0 1023292
22:00+13вюв238435 0.0 102356
1 июня, ср
ср101:00+12юв227942 0.0 102422
04:00+11юв22738 0.0 102422
07:00+14юв257210 0.0 1024190
10:00+19ююв455579 0.0 1023932
13:00+22ююв454834 0.0 10231426
16:00+22ю454988 0.0 10221454
19:00+21ююв366220 0.0 1022398
22:00+15ююв347719 0.0 102362
2 июня, чт
чт201:00+14ююв347814 0.0 102367
04:00+14ю2575100 0.0 1023122
07:00+16ю2776100 0.1 1023225
10:00+18ю1574100 0.1 1022222
13:00+23ююз5752100 0.0 10221000
16:00+24ююз565239 0.0 10211227
19:00+22ю48655 0.0 1020597
22:00+17ю398587 0.0 1021172